Home   Weather   Gainesville   Past weeks

Flag for USA Past Weather in Gainesville, Florida, USA — Yesterday and Last 2 Weeks

Now
63 °F

Passing clouds.


Feels Like: 63 °F
Forecast: 59 / 78 °F
Wind: 3 mph from Southwest

Location: Gainesville Regional Airport

Current Time: Feb 18, 2018 at 2:20:22 am

Latest Report: Feb 18, 2018 at 12:53 am


Visibility: 10 mi

Pressure: 30.22 "Hg

Humidity: 97%

Dew Point: 62 °F

Location of GainesvilleLocation

Past Weather in Gainesville — Graph

°F

Gainesville Temperature Yesterday

Maximum temperature yesterday: 81 °F (at 1:53 pm)
Minimum temperature yesterday: 63 °F (at 3:37 am)
Average temperature yesterday: 68 °F

High & Low Weather Summary for the Past Weeks

 TemperatureHumidityPressure
High82 °F (Feb 11, 2:53 pm)100% (Feb 5, 1:27 am)30.52 "Hg (Feb 5, 1:27 am)
Low40 °F (Feb 3, 3:53 am)36% (Feb 5, 3:53 pm)29.93 "Hg (Feb 4, 4:53 pm)
Average64 °F85%30.26 "Hg
* Reported Feb 3 12:53 am — Feb 18 12:53 am, Gainesville. Weather by CustomWeather, © 2018

Note: Actual official high and low records may vary slightly from our data, if they occured in-between our weather recording intervals... More about our weather records

Advertising

Gainesville Weather History for the Previous 24 Hours

Scroll right to see more
 ConditionsComfort  
Time TempWeatherWind HumidityBarometerVisibility
12:53 am
Sun, Feb 18
63 °FPassing clouds.3 mph97%30.22 "Hg10 mi
12:33 am62 °FPassing clouds.5 mph96%30.22 "Hg10 mi
11:53 pm
Sat, Feb 17
65 °FClear.6 mph94%30.21 "Hg10 mi
10:53 pm65 °FClear.7 mph97%30.22 "Hg10 mi
9:53 pm66 °FClear.6 mph90%30.22 "Hg10 mi
8:53 pm66 °FClear.6 mph84%30.22 "Hg10 mi
7:53 pm69 °FClear.6 mph79%30.21 "Hg10 mi
6:53 pm71 °FPassing clouds.9 mph76%30.21 "Hg10 mi
5:53 pm74 °FPassing clouds.15 mph64%30.19 "Hg10 mi
4:53 pm78 °FSunny.14 mph56%30.18 "Hg10 mi
3:53 pm80 °FPartly sunny.15 mph52%30.16 "Hg10 mi
2:53 pm80 °FPartly sunny.12 mph52%30.16 "Hg10 mi
1:53 pm81 °FPassing clouds.8 mph51%30.15 "Hg10 mi
11:53 am76 °FPassing clouds.8 mph64%30.20 "Hg10 mi
10:53 am73 °FPassing clouds.7 mph71%30.22 "Hg10 mi
9:53 am67 °FOvercast.No wind85%30.23 "Hg10 mi
8:53 am65 °FLow clouds.6 mph94%30.23 "Hg10 mi
7:53 am64 °FLow clouds.5 mph97%30.21 "Hg10 mi
6:53 am64 °FLow clouds.6 mph97%30.20 "Hg10 mi
6:38 am64 °FLow clouds.5 mph97%30.20 "Hg10 mi
5:53 am64 °FOvercast.6 mph97%30.19 "Hg10 mi
5:08 am64 °FMostly cloudy.3 mph100%30.19 "Hg10 mi
4:55 am64 °FFog.3 mph100%30.18 "Hg3 mi
4:15 am64 °FFog.5 mph100%30.18 "Hg1 mi
4:00 am63 °FFog.No wind100%30.17 "Hg1 mi
3:37 am63 °FFog.No wind100%30.17 "Hg1 mi
3:05 am64 °FPassing clouds.3 mph97%30.18 "Hg10 mi
2:28 am65 °FMostly cloudy.3 mph100%30.18 "Hg10 mi
2:00 am65 °FFog.6 mph100%30.19 "Hg6 mi
Weather by CustomWeather, © 2018

See weather overview